Regional Weather Roundup
Issued by NWS

Home | Current Version | Previous Version | Text Only | Print | Product List | Glossary Off
Versions: 1 2 3 4 5 6 7 8 9 10 11 12 13 14 15 16 17 18 19 20 21 22 23 24 25 26 27 28 29 30 31 32 33 34 35 36 37 38 39 40 41 42 43 44 45 46 47 48 49 50

000
ASUS45 KBOI 310310
RWRID

IDAHO REGIONAL WEATHER ROUNDUP
NATIONAL WEATHER SERVICE BOISE ID
900 PM MDT SUN AUG 30 2015

NOTE: "FAIR" INDICATES FEW OR NO CLOUDS BELOW 12000 FEET
WITH NO SIGNIFICANT WEATHER AND/OR OBSTRUCTIONS TO VISIBILITY

IDZ012-014-310400-
SOUTHWEST IDAHO


CITY           SKY/WX    TMP DP  RH WIND       PRES   REMARKS
BOISE          CLEAR     71  39  31 N6        29.95R
CALDWELL       CLEAR     68  39  34 NW13      29.98R
MOUNTAIN HOME  CLEAR     73  35  24 N15       29.94R
$$

IDZ016-017-310400-
SOUTHCENTRAL IDAHO


CITY           SKY/WX    TMP DP  RH WIND       PRES   REMARKS
BURLEY         CLEAR     63  40  42 SW7       29.98R
JEROME         CLEAR     64  34  32 W6        29.99R
TWIN FALLS     CLEAR     69  27  20 W9        30.00R
$$

IDZ019>023-310400-
SOUTHEAST IDAHO


CITY           SKY/WX    TMP DP  RH WIND       PRES   REMARKS
IDAHO FALLS    CLEAR     69  27  20 S10       29.99R
POCATELLO      CLEAR     63  36  36 SW10      30.01R
REXBURG        CLEAR     65  30  27 S10       29.99R
$$

IDZ006-010-011-018-031-032-310400-
CENTRAL IDAHO MOUNTAINS


CITY           SKY/WX    TMP DP  RH WIND       PRES   REMARKS
MCCALL         CLOUDY    56  40  55 CALM      30.07R
STANLEY          N/A     50  31  48 S3        30.13R
SALMON         CLOUDY    66  30  26 NW5       29.95R
CHALLIS        PTCLDY    64  26  23 W14       30.03R
$$

IDZ002-004-006-007-026-310400-
NORTHERN IDAHO


CITY           SKY/WX    TMP DP  RH WIND       PRES   REMARKS
LEWISTON       MOCLDY    66  43  43 SW6       29.98R
LOWELL           N/A     57  55  93 CALM      30.05S
COEUR D`ALENE  PTCLDY    59  46  63 S14G20    29.94R
MULLAN PASS    CLOUDY    41  40  96 VRB6      30.04R
$$


USA.gov is the U.S. government's official web portal to all federal, state and local government web resources and services.